Simultaneous Nadir Overpasses (SNOs) Predictions

Prediction of SNOs near equator between NOAA-19 and NPP Satellite Orbit:

Table of predicted SNOs near equator for the next 14.0 days since TLE Epoch: 5/9/2013
Index Date (NOAA-19) Time (NOAA-19) NOAA-19 Lat,Lon Date (NPP) Time (NPP) NPP Lat,Lon Distance(km) Time Diff (sec)
1 05/09/2013 05:00:39 -29.98, -55.91 05/09/2013 04:51:22 -29.80, -56.86 93.85 557
2 05/09/2013 05:51:48 29.99, 111.30 05/09/2013 05:42:11 29.80, 110.43 86.08 577
3 05/09/2013 06:42:43 -29.95, -81.42 05/09/2013 06:32:52 -29.80, -82.24 80.39 591
4 05/21/2013 15:35:06 29.97, -34.45 05/21/2013 15:25:50 29.75, -35.44 98.77 556
5 05/21/2013 16:26:00 -29.99, 132.82 05/21/2013 16:16:32 -29.81, 131.87 93.80 568
6 05/21/2013 17:17:11 29.99, -59.97 05/21/2013 17:07:21 29.81, -60.83 85.19 590
7 05/21/2013 18:08:04 -29.96, 107.31 05/21/2013 17:58:04 -29.93, 106.47 81.90 600




NCC Satellite Simultaneous Nadir Overpasses (SNOs) Prediction Service
